KZR221 UAAA-EDDF

Flight info

Callsign KZR221
Flight time N/A
Altitude 34000
Route ETEDA1B ETEDA DCT REGMU L143 TIPSA M610 DIVNO N161 GASBI/N0465F320 N161 LEYLA N644 ADEKI DCT BADIR DCT LAGAS DCT NOLGA UN61 TBN UM11 CRM UL746 ODERO L621 REVDA DCT PILAT DCT URELA DCT SOBSA DCT TGM DCT REBLA DCT RILAS DCT SAG DCT MIZOL DCT VALPI DCT BNO DCT VLM DCT ELMEK DCT DONAD DCT RAPET T170 GAPLA T178 KERAX KERAX5D
Aircraft A21N/M-SDE2E3FGHIRWXY/LB1

Departure

Time 2026-05-08 05:24
Airport Almaty International Airport (UAAA)

Arrival

Time N/A
Airport Frankfurt Main Airport (EDDF)
Time Latitude Longitude Altitude Speed Heading
2026-05-08 05:11 43.34913 77.01342 2232 ft 0 kts 245°
2026-05-08 05:16 43.34916 77.01351 2232 ft 4 kts 245°
2026-05-08 05:17 43.34927 77.01384 2232 ft 4 kts 245°
2026-05-08 05:17 43.34938 77.01415 2232 ft 2 kts 245°
2026-05-08 05:17 43.34951 77.01441 2232 ft 4 kts 200°
2026-05-08 05:17 43.34974 77.01441 2232 ft 4 kts 158°
2026-05-08 05:18 43.34985 77.01434 2232 ft 1 kts 156°
2026-05-08 05:18 43.34986 77.01434 2232 ft 0 kts 156°
2026-05-08 05:20 43.34985 77.01434 2232 ft 1 kts 156°
2026-05-08 05:20 43.34938 77.01463 2232 ft 11 kts 156°
2026-05-08 05:21 43.34869 77.01502 2232 ft 11 kts 165°
2026-05-08 05:21 43.34723 77.01451 2232 ft 23 kts 200°
2026-05-08 05:21 43.34589 77.01468 2232 ft 18 kts 169°
2026-05-08 05:21 43.34458 77.01543 2233 ft 22 kts 155°
2026-05-08 05:22 43.34319 77.01632 2233 ft 22 kts 156°
2026-05-08 05:22 43.34184 77.01719 2233 ft 20 kts 148°
2026-05-08 05:22 43.34164 77.01822 2232 ft 10 kts 69°
2026-05-08 05:22 43.34184 77.01866 2233 ft 0 kts 56°
2026-05-08 05:23 43.34202 77.01904 2232 ft 25 kts 56°
2026-05-08 05:23 43.34440 77.02385 2234 ft 95 kts 56°
2026-05-08 05:23 43.34955 77.03419 2233 ft 164 kts 56°
2026-05-08 05:23 43.35655 77.04828 2502 ft 193 kts 56°
2026-05-08 05:24 43.36454 77.06363 3076 ft 199 kts 53°
2026-05-08 05:24 43.37292 77.07957 3664 ft 210 kts 54°
2026-05-08 05:24 43.38157 77.09643 4155 ft 225 kts 54°
2026-05-08 05:24 43.39109 77.11494 4409 ft 254 kts 54°
2026-05-08 05:25 43.40168 77.13544 4962 ft 268 kts 54°
2026-05-08 05:25 43.41358 77.15544 5649 ft 274 kts 38°
2026-05-08 05:25 43.43098 77.16568 6406 ft 277 kts
2026-05-08 05:25 43.44982 77.16130 7148 ft 280 kts 334°
2026-05-08 05:26 43.46719 77.14838 7960 ft 283 kts 330°
2026-05-08 05:26 43.48454 77.13570 8782 ft 287 kts 333°
2026-05-08 05:26 43.50185 77.12187 9620 ft 288 kts 320°
2026-05-08 05:26 43.51557 77.10185 10395 ft 291 kts 301°
2026-05-08 05:27 43.52416 77.07581 10792 ft 309 kts 286°
2026-05-08 05:27 43.52917 77.04634 11126 ft 327 kts 278°
2026-05-08 05:27 43.53210 77.01435 11429 ft 344 kts 275°
2026-05-08 05:27 43.53405 76.98067 11721 ft 359 kts 274°
2026-05-08 05:28 43.53582 76.94575 12158 ft 368 kts 274°
2026-05-08 05:28 43.53778 76.91037 12744 ft 371 kts 274°
2026-05-08 05:28 43.54003 76.87468 13386 ft 374 kts 275°
2026-05-08 05:28 43.54251 76.83930 14002 ft 377 kts 275°
2026-05-08 05:29 43.54520 76.80306 14579 ft 380 kts 275°
2026-05-08 05:29 43.54799 76.76655 15134 ft 384 kts 275°
2026-05-08 05:29 43.55080 76.73018 15690 ft 387 kts 276°
2026-05-08 05:29 43.55366 76.69310 16244 ft 390 kts 276°
2026-05-08 05:30 43.55652 76.65577 16767 ft 393 kts 276°
2026-05-08 05:30 43.55938 76.61803 17286 ft 396 kts 276°
2026-05-08 05:30 43.56224 76.58012 17786 ft 399 kts 276°
2026-05-08 05:30 43.56511 76.54180 18263 ft 402 kts 276°
2026-05-08 05:31 43.56701 76.51630 18549 ft 404 kts 276°
2026-05-08 05:31 43.57081 76.46490 19093 ft 408 kts 276°
2026-05-08 05:31 43.57272 76.43893 19380 ft 410 kts 276°
2026-05-08 05:31 43.57560 76.39970 19806 ft 412 kts 276°
2026-05-08 05:32 43.57849 76.36013 20262 ft 415 kts 276°
2026-05-08 05:32 43.58138 76.32033 20733 ft 418 kts 276°
2026-05-08 05:32 43.58427 76.28040 21191 ft 421 kts 276°
2026-05-08 05:32 43.58687 76.23999 21646 ft 424 kts 274°
2026-05-08 05:33 43.58863 76.19971 22114 ft 426 kts 273°
2026-05-08 05:33 43.59000 76.15871 22554 ft 429 kts 273°
2026-05-08 05:33 43.59124 76.11740 23024 ft 431 kts 273°
2026-05-08 05:33 43.59249 76.07596 23485 ft 433 kts 273°
2026-05-08 05:34 43.59383 76.03414 23840 ft 436 kts 273°
2026-05-08 05:34 43.59524 75.99218 24174 ft 439 kts 273°
2026-05-08 05:34 43.59668 75.95045 24513 ft 441 kts 273°
2026-05-08 05:34 43.59817 75.90807 24850 ft 443 kts 273°
2026-05-08 05:35 43.59966 75.86539 25192 ft 446 kts 273°
2026-05-08 05:35 43.60116 75.82243 25541 ft 448 kts 273°
2026-05-08 05:35 43.60265 75.77929 25879 ft 450 kts 273°
2026-05-08 05:35 43.60412 75.73607 26281 ft 451 kts 273°
2026-05-08 05:36 43.60555 75.69334 26602 ft 453 kts 273°
2026-05-08 05:36 43.60699 75.64975 26993 ft 453 kts 273°
2026-05-08 05:36 43.60841 75.60617 27450 ft 452 kts 273°
2026-05-08 05:36 43.60981 75.56283 27884 ft 451 kts 273°
2026-05-08 05:37 43.61118 75.51966 28292 ft 450 kts 273°
2026-05-08 05:37 43.61252 75.47686 28690 ft 450 kts 273°
2026-05-08 05:37 43.61357 75.44331 29013 ft 450 kts 272°
2026-05-08 05:39 43.61459 75.41031 29340 ft 449 kts 272°
2026-05-08 05:39 43.61569 75.37431 29728 ft 448 kts 272°
2026-05-08 05:40 43.62870 75.07870 29386 ft 467 kts 273°
2026-05-08 05:41 43.62947 75.05751 27993 ft 476 kts 276°
2026-05-08 05:41 43.72329 74.92479 16698 ft 228 kts
2026-05-08 05:41 43.78494 74.88146 16079 ft 226 kts 315°
2026-05-08 05:41 43.79554 74.82396 17152 ft 274 kts 279°